Location: Frankfurt+(oder)
(51.7984°N, 12.2168°E)
Time: 00:34:16
(UTC+02:00)

ISS - Visible Passes

Search period start: 25 July 2017 00:00
Search period end: 04 August 2017 00:00
Orbit: 400 x 408 km, 51.6° (Epoch: 25 July)

Date Brightness Start Highest point End Pass type
(mag) Time Alt. Az. Time Alt. Az. Time Alt. Az.
25 Jul -4.0 00:07:59 10° WSW 00:11:14 79° S 00:14:30 10° E visible
25 Jul -4.0 01:44:27 10° W 01:47:43 80° S 01:50:58 10° ESE visible
25 Jul -3.1 03:21:02 10° W 03:23:57 30° SSW 03:26:51 10° SE visible
25 Jul -3.9 23:15:42 10° WSW 23:18:56 64° SSE 23:22:10 10° E visible
26 Jul -4.0 00:52:07 10° W 00:55:23 88° S 00:56:43 33° E visible
26 Jul -1.6 02:28:37 10° W 02:29:16 15° W 02:29:16 15° W visible
26 Jul -3.6 22:23:30 10° SW 22:26:39 48° SSE 22:29:48 10° E visible
26 Jul -3.9 23:59:45 10° W 00:03:02 89° S 00:05:18 18° E visible
27 Jul -2.4 01:36:15 10° W 01:37:54 27° W 01:37:54 27° W visible
27 Jul -4.0 23:07:24 10° W 23:10:40 83° S 23:13:56 10° E visible
28 Jul -3.9 00:43:53 10° W 00:46:54 70° SW 00:46:54 70° SW visible
28 Jul -3.9 22:15:04 10° WSW 22:18:19 70° SSE 22:21:34 10° E visible
28 Jul -4.0 23:51:30 10° W 23:54:47 86° S 23:56:01 35° E visible
29 Jul -1.4 01:28:01 10° W 01:28:38 14° W 01:28:38 14° W visible
29 Jul -3.9 22:59:07 10° W 23:02:23 90° WSW 23:05:12 13° E visible
30 Jul -2.9 00:35:35 10° W 00:37:49 36° WSW 00:37:49 36° WSW visible
30 Jul -3.9 22:06:43 10° W 22:09:59 86° S 22:13:15 10° E visible
30 Jul -4.0 23:43:11 10° W 23:46:26 70° SSW 23:47:01 54° SE visible
31 Jul -3.9 22:50:46 10° W 22:54:03 83° S 22:56:14 19° ESE visible
01 Aug -2.1 00:27:19 10° W 00:28:51 22° WSW 00:28:51 22° WSW visible
01 Aug -3.9 21:58:21 10° W 22:01:37 89° S 22:04:53 10° E visible
01 Aug -3.6 23:34:50 10° W 23:38:00 48° SSW 23:38:06 48° SSW visible
02 Aug -3.8 22:42:23 10° W 22:45:37 64° SSW 22:47:21 24° ESE visible
03 Aug -1.4 00:19:12 10° W 00:19:58 14° WSW 00:19:58 14° WSW visible
03 Aug -3.9 21:49:56 10° W 21:53:12 79° S 21:56:27 10° ESE visible
03 Aug -2.7 23:26:31 10° W 23:29:15 29° SW 23:29:15 29° SW visible
